FW8347 Weather Reports


time (UTC)temp
C
wind
direction
speed
KPH
gust
KPH
rain 1hr
cm
rain 24hr
cm
rain mn
cm
humidity
%
barometer
mb
20260831214556 21 175 3.2 6.4 0.00 0.03 0.03 93 1016.6
20260831213058 21 175 3.2 6.4 0.00 0.03 0.03 93 1016.6
20260831211603 21 175 3.2 6.4 0.00 0.03 0.03 93 1016.8
20260831210049 21 175 3.2 6.4 0.00 0.03 0.03 93 1016.7
20260831204555 21 175 0.0 4.8 0.00 0.03 0.03 93 1016.8
20260831203058 21 0 1.6 4.8 0.00 0.03 0.03 92 1017.0
20260831201559 21 163 3.2 8.0 0.00 0.03 0.03 92 1017.0
20260831200049 21 167 8.0 14.5 0.00 0.03 0.03 92 1016.9
20260831194636 21 188 8.0 12.9 0.00 0.05 0.03 91 1017.2
20260831193053 21 186 1.6 9.7 0.00 0.05 0.03 92 1017.5
20260831191550 21 166 4.8 9.7 0.00 0.05 0.03 92 1017.5
20260831190059 21 151 1.6 9.7 0.00 0.05 0.03 91 1017.5
20260831184600 21 161 8.0 14.5 0.00 0.08 0.03 90 1017.6
20260831183054 21 139 3.2 8.0 0.00 0.08 0.03 89 1017.8
20260831181554 21 148 4.8 8.0 0.00 0.08 0.03 89 1017.8
20260831180100 21 150 3.2 8.0 0.00 0.08 0.03 88 1018.2
20260831174555 21 158 4.8 14.5 0.00 0.08 0.03 88 1018.1
20260831173057 21 144 8.0 17.7 0.00 0.08 0.03 88 1018.2
20260831171600 21 139 8.0 16.1 0.00 0.08 0.03 89 1018.3
20260831170114 21 170 9.7 17.7 0.00 0.08 0.03 89 1018.6
20260831164553 21 179 11.3 19.3 0.00 0.08 0.03 90 1018.5
20260831163050 21 160 8.0 19.3 0.00 0.08 0.03 92 1018.7
20260831161552 20 164 8.0 16.1 0.03 0.08 0.03 93 1018.8
20260831160057 20 175 6.4 14.5 0.03 0.08 0.03 94 1018.9
20260831154616 20 159 6.4 11.3 0.03 0.08 0.03 94 1019.3
20260831153113 19 182 3.2 8.0 0.03 0.08 0.03 94 1019.2
20260831151603 19 148 4.8 12.9 0.00 0.05 0.00 94 1019.2
20260831150057 19 166 4.8 9.7 0.00 0.05 0.00 94 1019.1
20260831144638 19 0 1.6 4.8 0.00 0.05 0.00 94 1019.1
20260831143049 18 0 1.6 4.8 0.00 0.05 0.00 94 1018.8
20260831141600 18 0 1.6 6.4 0.00 0.05 0.00 93 1018.9
20260831140046 18 140 3.2 6.4 0.00 0.05 0.00 93 1019.2
20260831134601 18 140 3.2 4.8 0.00 0.05 0.00 93 1018.8
20260831133101 18 140 1.6 4.8 0.00 0.05 0.00 92 1018.8
20260831131602 18 171 6.4 12.9 0.00 0.05 0.00 92 1018.7
20260831130104 18 156 6.4 12.9 0.00 0.05 0.00 92 1018.9
20260831124608 18 156 6.4 9.7 0.00 0.05 0.00 92 1018.9
20260831123058 17 164 4.8 9.7 0.00 0.05 0.00 92 1019.1
20260831121605 17 167 6.4 11.3 0.00 0.05 0.00 92 1019.1
20260831120052 17 164 6.4 9.7 0.00 0.05 0.00 92 1019.3
20260831114556 17 169 4.8 12.9 0.00 0.05 0.00 92 1019.4
20260831113054 17 181 4.8 9.7 0.00 0.05 0.00 92 1019.3
20260831111558 17 185 4.8 9.7 0.00 0.05 0.00 92 1019.3
20260831110053 17 190 4.8 9.7 0.00 0.05 0.00 92 1019.0
20260831104551 17 171 6.4 9.7 0.00 0.05 0.00 92 1019.1
20260831103046 17 171 6.4 11.3 0.00 0.05 0.00 92 1019.0
20260831101557 17 180 4.8 9.7 0.00 0.05 0.00 92 1018.9
20260831100116 17 180 6.4 9.7 0.00 0.05 0.00 92 1018.8
20260831094600 17 180 4.8 8.0 0.00 0.05 0.00 92 1018.9
20260831093058 17 180 4.8 8.0 0.00 0.05 0.00 92 1019.2
20260831091557 17 180 4.8 8.0 0.00 0.05 0.00 93 1018.9
20260831090053 17 180 3.2 8.0 0.00 0.05 0.00 93 1019.0
20260831084626 17 180 4.8 8.0 0.00 0.05 0.00 93 1019.0
20260831083058 17 180 3.2 6.4 0.00 0.05 0.00 92 1019.1
20260831081556 17 180 3.2 6.4 0.00 0.05 0.00 92 1019.2
20260831080105 17 180 4.8 8.0 0.00 0.05 0.00 92 1019.1
20260831074600 17 180 4.8 8.0 0.00 0.05 0.00 92 1019.3
20260831073047 17 180 3.2 6.4 0.00 0.05 0.00 92 1019.3
20260831071607 17 180 4.8 8.0 0.00 0.05 0.00 92 1019.3
20260831070051 17 180 4.8 8.0 0.00 0.05 0.00 92 1019.2
20260831064550 17 180 6.4 9.7 0.00 0.05 0.00 92 1019.4
20260831063045 17 180 4.8 8.0 0.00 0.05 0.00 92 1019.2
20260831061558 17 180 4.8 9.7 0.00 0.05 0.00 91 1019.2
20260831060101 17 180 6.4 8.0 0.00 0.05 0.00 91 1019.6
20260831054550 17 180 4.8 9.7 0.00 0.05 0.00 91 1019.5
20260831053056 17 168 6.4 11.3 0.00 0.05 0.00 91 1019.7
20260831051555 17 171 4.8 9.7 0.00 0.05 0.00 91 1019.6
20260831050108 17 190 4.8 9.7 0.00 0.05 0.00 91 1019.7
20260831044549 17 189 4.8 9.7 0.00 0.05 0.00 91 1019.9
20260831043053 17 192 6.4 9.7 0.00 0.05 0.00 91 1019.9
20260831041619 17 182 6.4 9.7 0.00 0.05 0.00 91 1019.8
20260831040049 16 0 0.0 0.0 0.00 0.05 0.00 91 1019.7
20260831034547 16 0 0.0 0.0 0.00 0.05 0.05 91 1019.8
20260831033105 16 0 0.0 0.0 0.00 0.05 0.05 90 1019.7
20260831031556 17 0 0.0 0.0 0.00 0.05 0.05 89 1019.7
20260831030052 17 0 0.0 3.2 0.00 0.05 0.05 87 1019.7
20260831024604 17 206 1.6 6.4 0.00 0.05 0.05 88 1019.7
20260831023101 18 209 3.2 9.7 0.00 0.05 0.05 87 1019.8
20260831021555 18 205 4.8 8.0 0.00 0.05 0.05 88 1019.8
20260831020050 18 206 4.8 12.9 0.00 0.05 0.05 88 1019.7
20260831014559 18 215 4.8 11.3 0.00 0.05 0.05 89 1019.8
20260831013059 17 207 6.4 9.7 0.00 0.05 0.05 90 1019.6
20260831011554 17 218 4.8 8.0 0.00 0.05 0.05 90 1019.7
20260831010112 18 253 3.2 4.8 0.00 0.05 0.05 89 1019.8
20260831004549 18 0 0.0 0.0 0.00 0.05 0.05 87 1019.6
20260831003108 19 0 0.0 0.0 0.00 0.05 0.05 85 1019.4
20260831001558 19 253 1.6 6.4 0.00 0.05 0.05 85 1019.1
20260831000053 20 253 3.2 6.4 0.00 0.05 0.05 85 1018.9
20260830234554 20 246 4.8 11.3 0.00 0.05 0.05 85 1018.7
20260830233056 20 235 3.2 11.3 0.00 0.05 0.05 86 1018.5
20260830231600 20 243 6.4 14.5 0.00 0.05 0.05 86 1018.6
20260830230050 20 293 8.0 14.5 0.00 0.05 0.05 87 1018.6
20260830224604 20 255 8.0 16.1 0.00 0.05 0.05 86 1018.7
20260830223058 20 229 4.8 12.9 0.00 0.05 0.05 87 1018.8
20260830221601 20 273 4.8 11.3 0.00 0.05 0.05 87 1018.8
20260830220100 20 254 9.7 14.5 0.00 0.05 0.05 86 1018.6